TimeCST,TemperatureF,Dew PointF,Humidity,Sea Level PressureIn,VisibilityMPH,Wind Direction,Wind SpeedMPH,Gust SpeedMPH,PrecipitationIn,Events,Conditions,WindDirDegrees,DateUTC
12:15 AM,30.2,24.8,80,30.42,10.0,SSE,5.8,-,N/A,,Clear,160,2013-01-18 06:15:00
12:35 AM,30.2,24.8,80,30.43,10.0,SSE,6.9,-,N/A,,Clear,160,2013-01-18 06:35:00
12:55 AM,32.0,26.6,80,30.43,10.0,South,6.9,-,N/A,,Clear,170,2013-01-18 06:55:00
1:15 AM,32.0,26.6,80,30.43,10.0,South,9.2,-,N/A,,Clear,170,2013-01-18 07:15:00
1:35 AM,32.0,26.6,80,30.43,10.0,South,9.2,-,N/A,,Clear,170,2013-01-18 07:35:00
1:55 AM,32.0,26.6,80,30.43,10.0,South,8.1,-,N/A,,Clear,170,2013-01-18 07:55:00
2:15 AM,32.0,26.6,80,30.43,10.0,South,8.1,-,N/A,,Clear,170,2013-01-18 08:15:00
2:35 AM,32.0,26.6,80,30.43,10.0,South,8.1,-,N/A,,Clear,170,2013-01-18 08:35:00
2:55 AM,32.0,26.6,80,30.42,10.0,SSE,9.2,-,N/A,,Clear,160,2013-01-18 08:55:00
3:15 AM,32.0,26.6,80,30.42,10.0,SSE,8.1,-,N/A,,Clear,160,2013-01-18 09:15:00
3:35 AM,32.0,26.6,80,30.42,10.0,South,9.2,-,N/A,,Clear,170,2013-01-18 09:35:00
3:55 AM,32.0,26.6,80,30.41,10.0,South,10.4,-,N/A,,Clear,170,2013-01-18 09:55:00
4:15 AM,32.0,26.6,80,30.40,10.0,SSE,8.1,-,N/A,,Clear,160,2013-01-18 10:15:00
4:35 AM,32.0,26.6,80,30.39,10.0,South,10.4,-,N/A,,Clear,170,2013-01-18 10:35:00
4:55 AM,32.0,26.6,80,30.38,10.0,SSE,9.2,16.1,N/A,,Clear,160,2013-01-18 10:55:00
5:15 AM,32.0,26.6,80,30.38,10.0,South,11.5,-,N/A,,Clear,180,2013-01-18 11:15:00
5:35 AM,32.0,26.6,80,30.38,10.0,South,9.2,-,N/A,,Clear,180,2013-01-18 11:35:00
5:55 AM,32.0,26.6,80,30.37,10.0,South,9.2,-,N/A,,Clear,170,2013-01-18 11:55:00
6:35 AM,32.0,26.6,80,30.37,10.0,South,11.5,-,N/A,,Clear,170,2013-01-18 12:35:00
6:55 AM,32.0,26.6,80,30.35,10.0,South,9.2,-,N/A,,Clear,170,2013-01-18 12:55:00
7:15 AM,32.0,26.6,80,30.35,10.0,South,8.1,-,N/A,,Clear,180,2013-01-18 13:15:00
7:35 AM,32.0,26.6,80,30.35,10.0,South,10.4,-,N/A,,Clear,170,2013-01-18 13:35:00
7:55 AM,32.0,26.6,80,30.35,10.0,South,10.4,17.3,N/A,,Clear,170,2013-01-18 13:55:00
8:15 AM,32.0,26.6,80,30.35,10.0,South,11.5,16.1,N/A,,Clear,180,2013-01-18 14:15:00
8:35 AM,33.8,26.6,75,30.35,10.0,South,11.5,-,N/A,,Clear,180,2013-01-18 14:35:00
8:55 AM,33.8,26.6,75,30.33,10.0,South,16.1,-,N/A,,Clear,180,2013-01-18 14:55:00
9:15 AM,35.6,28.4,75,30.33,10.0,South,15.0,21.9,N/A,,Clear,180,2013-01-18 15:15:00
9:35 AM,37.4,28.4,70,30.33,10.0,South,15.0,20.7,N/A,,Clear,170,2013-01-18 15:35:00
9:55 AM,37.4,28.4,70,30.32,10.0,South,15.0,18.4,N/A,,Clear,170,2013-01-18 15:55:00
10:15 AM,41.0,28.4,61,30.32,10.0,South,13.8,23.0,N/A,,Clear,180,2013-01-18 16:15:00
10:35 AM,42.8,30.2,61,30.30,10.0,South,13.8,-,N/A,,Clear,170,2013-01-18 16:35:00
10:55 AM,44.6,30.2,57,30.30,10.0,South,16.1,21.9,N/A,,Clear,190,2013-01-18 16:55:00
11:15 AM,44.6,30.2,57,30.28,10.0,South,17.3,21.9,N/A,,Clear,180,2013-01-18 17:15:00
11:35 AM,46.4,32.0,57,30.26,10.0,South,16.1,24.2,N/A,,Clear,180,2013-01-18 17:35:00
11:55 AM,48.2,32.0,54,30.23,10.0,South,19.6,25.3,N/A,,Clear,190,2013-01-18 17:55:00
12:15 PM,50.0,32.0,50,30.21,10.0,South,20.7,28.8,N/A,,Clear,190,2013-01-18 18:15:00
12:35 PM,50.0,32.0,50,30.19,10.0,South,18.4,28.8,N/A,,Clear,190,2013-01-18 18:35:00
12:55 PM,50.0,30.2,47,30.17,10.0,SSW,21.9,31.1,N/A,,Clear,200,2013-01-18 18:55:00
1:15 PM,51.8,30.2,44,30.16,10.0,South,20.7,33.4,N/A,,Clear,190,2013-01-18 19:15:00
1:35 PM,51.8,32.0,47,30.15,10.0,South,21.9,28.8,N/A,,Clear,190,2013-01-18 19:35:00
1:55 PM,53.6,30.2,41,30.15,10.0,SSW,21.9,27.6,N/A,,Clear,200,2013-01-18 19:55:00
2:15 PM,53.6,30.2,41,30.14,10.0,South,19.6,29.9,N/A,,Clear,190,2013-01-18 20:15:00
2:35 PM,53.6,30.2,41,30.13,10.0,SSW,23.0,29.9,N/A,,Clear,200,2013-01-18 20:35:00
2:55 PM,53.6,30.2,41,30.12,10.0,South,16.1,25.3,N/A,,Clear,190,2013-01-18 20:55:00
3:15 PM,53.6,30.2,41,30.11,10.0,SSW,18.4,25.3,N/A,,Clear,200,2013-01-18 21:15:00
3:35 PM,53.6,32.0,44,30.11,10.0,South,20.7,26.5,N/A,,Clear,190,2013-01-18 21:35:00
3:55 PM,53.6,30.2,41,30.10,10.0,SSW,21.9,33.4,N/A,,Clear,200,2013-01-18 21:55:00
4:15 PM,51.8,30.2,44,30.09,10.0,South,19.6,28.8,N/A,,Clear,190,2013-01-18 22:15:00
4:35 PM,51.8,30.2,44,30.09,10.0,South,18.4,29.9,N/A,,Clear,190,2013-01-18 22:35:00
4:55 PM,51.8,30.2,44,30.09,10.0,South,17.3,27.6,N/A,,Clear,190,2013-01-18 22:55:00
5:15 PM,50.0,30.2,47,30.09,10.0,South,17.3,25.3,N/A,,Clear,190,2013-01-18 23:15:00
5:35 PM,50.0,30.2,47,30.09,10.0,South,17.3,26.5,N/A,,Clear,190,2013-01-18 23:35:00
5:55 PM,48.2,30.2,50,30.10,10.0,South,15.0,19.6,N/A,,Clear,190,2013-01-18 23:55:00
6:15 PM,48.2,30.2,50,30.10,10.0,South,15.0,23.0,N/A,,Clear,190,2013-01-19 00:15:00
6:35 PM,46.4,30.2,53,30.11,10.0,SSW,15.0,20.7,N/A,,Clear,200,2013-01-19 00:35:00
6:55 PM,46.4,30.2,53,30.11,10.0,South,12.7,18.4,N/A,,Clear,190,2013-01-19 00:55:00
7:15 PM,44.6,30.2,57,30.11,10.0,South,12.7,18.4,N/A,,Clear,190,2013-01-19 01:15:00
7:35 PM,44.6,30.2,57,30.10,10.0,South,10.4,-,N/A,,Clear,190,2013-01-19 01:35:00
7:55 PM,42.8,30.2,61,30.10,10.0,South,11.5,-,N/A,,Clear,190,2013-01-19 01:55:00
8:15 PM,44.6,30.2,57,30.10,10.0,South,17.3,23.0,N/A,,Clear,190,2013-01-19 02:15:00
8:35 PM,44.6,30.2,57,30.09,10.0,South,17.3,24.2,N/A,,Clear,190,2013-01-19 02:35:00
8:55 PM,44.6,30.2,57,30.09,10.0,South,15.0,24.2,N/A,,Clear,190,2013-01-19 02:55:00
9:15 PM,44.6,30.2,57,30.09,10.0,South,15.0,21.9,N/A,,Clear,190,2013-01-19 03:15:00
9:35 PM,44.6,30.2,57,30.10,10.0,South,11.5,19.6,N/A,,Clear,190,2013-01-19 03:35:00
9:55 PM,42.8,30.2,61,30.09,10.0,South,13.8,18.4,N/A,,Clear,190,2013-01-19 03:55:00
10:15 PM,42.8,30.2,61,30.09,10.0,South,11.5,18.4,N/A,,Clear,190,2013-01-19 04:15:00
10:35 PM,42.8,30.2,61,30.08,10.0,South,13.8,18.4,N/A,,Clear,190,2013-01-19 04:35:00
10:55 PM,42.8,30.2,61,30.08,10.0,South,12.7,-,N/A,,Clear,190,2013-01-19 04:55:00
11:15 PM,42.8,30.2,61,30.07,10.0,South,13.8,20.7,N/A,,Clear,190,2013-01-19 05:15:00
11:35 PM,42.8,30.2,61,30.07,10.0,South,12.7,16.1,N/A,,Clear,190,2013-01-19 05:35:00
11:55 PM,42.8,30.2,61,30.06,10.0,South,13.8,19.6,N/A,,Clear,190,2013-01-19 05:55:00